Wind_Speed
14 14 14 13 13 13 12 12 12 12 12 12 11 11 11 11 10 10 9 9 9 8 8 8 8 8 7 7 7 6 5 5 4 4 4 4 4 4 4 4 4 4 4
16 15 15 15 15 14 14 14 14 14 14 13 13 13 12 12 12 11 11 11 10 9 9 9 9 9 8 8 8 7 6 6 5 5 5 5 5 5 6 6 5 5 5
18 18 17 17 17 16 16 16 16 16 15 15 15 14 14 13 13 12 12 11 11 11 10 10 10 10 9 9 9 8 7 7 7 7 6 6 6 6 6 6 6 6 6
19 19 19 19 19 19 19 18 18 18 17 17 16 16 16 15 14 14 13 12 12 12 11 11 11 11 11 10 10 9 9 8 8 8 8 8 7 7 7 7 7 7 7
21 21 21 21 21 21 20 20 20 20 20 19 18 18 17 17 16 16 15 14 14 13 13 12 12 11 11 11 11 11 10 10 9 10 10 9 9 8 8 8 8 8 8
23 23 23 23 23 23 22 22 22 22 22 21 21 19 18 18 18 18 17 16 15 15 14 14 13 13 12 11 11 12 11 11 11 11 11 10 9 9 9 9 9 9 10
26 25 25 25 25 25 24 24 24 24 23 23 22 21 20 19 19 19 18 17 17 16 15 15 15 14 14 13 13 12 12 12 11 11 11 10 10 10 10 10 10 10 10
28 28 27 28 27 27 26 26 25 25 24 24 24 22 21 20 20 19 19 18 18 17 17 16 16 15 15 14 13 13 13 13 12 12 11 11 11 11 11 11 11 11 11
30 30 29 29 29 29 28 27 26 26 26 25 25 24 23 22 21 21 20 19 18 18 17 17 16 16 15 14 14 14 13 13 13 13 13 12 13 13 13 13 13 13 13
32 31 31 31 31 30 30 29 28 27 27 27 26 25 24 23 22 22 21 20 19 18 18 18 17 16 15 15 14 14 14 14 14 14 14 14 14 15 15 15 15 15 15
32 32 32 32 32 31 31 30 29 28 28 27 27 26 25 24 23 23 22 21 21 20 19 18 18 17 16 16 16 16 15 15 15 15 15 16 16 16 16 17 17 16 16
31 31 31 32 32 32 32 31 31 30 29 29 28 27 26 26 24 24 24 23 22 22 21 20 19 18 18 17 17 17 17 16 16 17 17 17 18 18 18 18 18 18 19
31 31 31 31 31 32 32 33 32 31 30 30 29 29 28 27 26 26 25 25 24 23 22 21 20 19 19 19 19 18 18 18 18 18 18 19 18 19 19 20 20 20 20
31 31 31 31 32 32 32 33 33 32 32 31 30 30 28 28 27 27 27 26 25 24 23 22 22 21 20 21 20 20 20 20 20 20 20 20 20 20 21 21 21 21 21
31 31 31 31 32 32 32 32 33 32 32 31 31 30 29 29 29 28 29 28 27 26 24 24 23 23 22 21 22 22 21 21 21 21 21 21 22 22 22 22 23 23 22
31 31 31 31 32 32 32 32 32 32 32 32 31 30 30 29 29 29 28 29 28 27 26 25 25 24 24 23 23 23 23 23 22 23 23 23 23 24 24 24 24 24 24
31 31 31 31 31 31 32 33 32 32 33 32 32 32 31 29 29 29 28 29 29 28 27 27 27 25 25 24 23 24 25 24 24 24 24 25 24 25 25 25 26 26 26
30 30 30 31 31 30 31 32 33 33 34 33 33 33 31 30 30 30 29 29 29 29 29 28 27 27 26 26 25 25 26 26 26 26 26 26 26 26 27 27 27 27 27
31 31 31 31 31 30 31 32 33 34 34 34 33 33 32 31 31 31 30 30 30 30 29 29 28 27 27 27 26 26 26 27 27 28 28 28 28 28 27 27 28 28 29
31 32 32 31 31 31 31 32 32 33 34 34 34 33 32 32 32 32 31 31 32 32 32 31 29 28 28 27 27 27 28 29 29 29 29 29 29 29 29 28 28 29 30
31 31 32 32 33 32 31 31 32 33 34 35 35 34 33 33 33 33 33 32 31 31 31 31 30 30 30 30 29 28 29 30 30 30 30 30 30 30 30 30 29 30 31
31 31 31 32 33 33 32 31 32 33 34 35 35 34 33 33 33 34 34 33 32 32 31 31 31 32 32 32 32 31 30 31 31 30 30 31 31 31 31 31 31 31 32
32 32 31 32 33 33 33 33 32 33 34 36 35 33 32 32 33 33 33 33 33 32 32 32 32 32 32 33 33 32 31 31 32 32 32 31 31 32 33 33 33 33 33
31 31 31 32 32 32 32 32 32 34 34 35 34 33 33 34 34 34 34 34 34 33 33 32 32 33 33 33 33 33 34 33 34 33 33 34 34 34 35 35 35 36 37
31 31 31 32 32 31 31 32 33 34 34 35 35 34 34 34 35 34 34 35 35 34 34 34 34 34 35 35 34 35 35 36 36 36 35 35 36 37 37 37 38 38 39
30 31 31 32 32 31 32 31 32 33 35 35 34 34 33 34 34 35 35 35 35 35 35 36 36 36 36 36 36 36 36 37 37 37 37 37 38 38 39 40 40 41 41
Wind_Direction
248 245 244 242 241 240 240 240 241 242 244 243 241 242 240 238 238 237 233 232 232 233 230 227 225 223 221 222 223 221 222 227 232 239 247 252 259 267 275 282 288 294 302
249 247 247 244 242 242 241 241 241 243 243 244 244 242 241 240 240 240 238 235 233 235 233 229 229 228 227 227 227 229 231 236 240 247 254 258 263 268 273 278 283 287 295
252 249 248 246 244 243 242 241 242 244 245 245 245 243 241 240 240 239 239 236 234 235 235 232 234 234 234 233 232 233 236 242 246 253 259 264 266 268 271 274 280 284 289
253 251 248 246 245 244 243 242 242 244 245 245 244 243 241 240 239 238 239 238 236 238 239 238 239 240 239 240 239 239 242 245 249 255 261 265 266 268 270 273 279 284 286
253 252 249 247 245 245 245 244 243 244 245 245 244 244 242 241 239 239 240 241 241 240 241 241 241 243 243 243 244 245 247 249 253 257 259 261 263 265 269 274 278 280 282
252 252 250 247 246 246 247 246 245 244 245 245 244 244 244 241 240 240 240 241 242 243 244 243 242 244 245 245 245 247 249 253 257 260 260 258 259 264 270 276 279 280 280
252 252 250 248 247 246 246 246 246 244 244 244 244 244 243 242 241 241 241 242 243 244 245 245 243 244 246 247 247 249 252 255 257 258 259 256 259 264 269 274 278 280 281
251 252 250 248 248 247 247 247 246 245 244 244 244 244 243 242 241 241 241 241 243 244 245 247 245 245 248 249 249 250 252 254 256 257 259 259 261 265 268 272 275 277 280
250 250 249 248 248 247 247 247 246 244 244 243 243 242 242 241 241 241 241 240 243 244 244 245 245 246 247 248 249 250 253 255 256 256 259 262 263 266 268 272 274 275 277
249 248 247 246 245 245 245 245 245 245 244 242 242 240 240 242 241 242 240 240 241 243 243 243 244 245 246 249 251 252 254 257 257 257 258 261 264 266 268 270 273 275 275
247 246 245 245 244 242 243 243 244 244 243 241 239 238 238 240 242 241 239 239 241 242 244 243 243 245 247 250 252 252 253 256 258 258 258 261 264 266 268 270 272 274 274
245 245 243 243 243 242 242 243 243 242 241 239 236 235 236 238 239 240 239 239 240 241 242 243 244 246 248 250 252 253 253 256 258 260 260 262 263 266 269 271 273 273 273
243 242 240 241 242 242 242 242 241 240 238 237 235 234 235 236 237 239 241 239 240 241 241 242 243 247 248 251 252 254 255 257 260 264 263 263 266 267 269 270 273 273 273
242 242 241 242 243 242 242 240 237 236 236 235 234 233 235 235 237 239 241 241 241 240 241 243 243 247 252 253 252 254 256 258 261 265 266 266 268 269 269 270 271 273 273
241 240 239 241 242 242 240 236 233 233 233 233 233 233 233 234 237 239 241 242 241 240 241 243 245 248 250 254 254 254 256 259 261 265 267 268 269 270 271 272 271 272 274
240 240 240 241 242 240 238 235 233 231 230 231 231 232 232 235 238 239 241 241 241 240 240 243 246 248 251 254 255 255 257 260 262 265 268 270 271 272 274 273 273 272 273
240 239 240 240 239 239 236 233 233 231 229 230 232 232 231 234 237 239 240 241 240 240 241 243 245 248 250 253 255 257 260 261 263 266 269 270 272 273 274 274 273 273 272
237 238 239 239 239 237 235 233 231 230 229 230 230 231 232 234 237 240 240 240 240 242 242 243 246 249 252 255 257 257 259 262 264 267 270 271 273 274 274 274 273 273 272
237 238 238 237 236 234 233 232 231 228 229 229 229 230 231 235 237 239 240 239 238 240 242 244 246 249 252 255 258 258 261 263 266 268 271 272 273 273 275 275 273 272 271
240 239 238 236 235 234 234 233 231 228 228 229 230 230 232 236 236 237 240 240 239 241 242 245 248 249 251 254 257 259 261 262 265 268 270 270 273 273 275 276 274 273 273
241 241 239 237 235 233 235 234 232 230 230 230 230 232 233 236 237 239 242 241 239 242 243 246 248 250 251 255 259 262 263 263 265 268 269 270 271 272 275 274 275 275 273
241 243 242 240 237 234 234 234 233 233 232 231 230 231 234 237 238 239 241 242 241 243 245 247 248 250 253 255 258 263 263 263 266 269 271 270 271 273 274 274 275 276 275
242 243 242 239 237 234 234 234 234 233 232 230 230 234 237 239 240 241 241 243 244 245 247 247 249 252 254 255 258 261 263 265 265 269 271 273 273 275 275 275 275 275 277
242 243 242 236 235 234 235 236 236 234 232 230 232 234 236 238 240 240 241 244 246 248 248 248 250 252 254 256 258 261 264 267 267 268 270 272 273 274 274 275 275 276 277
243 242 241 234 234 233 234 235 236 235 234 234 235 236 237 239 239 240 242 245 247 249 250 250 251 253 255 258 260 263 266 269 269 270 270 272 273 273 273 274 275 276 277
241 242 240 235 233 232 232 236 238 237 235 234 236 238 239 240 241 242 243 246 247 250 253 253 254 255 257 259 263 265 267 268 269 270 272 273 273 273 274 274 275 276 276
Height
5853 5854 5855 5856 5856 5857 5858 5858 5859 5860 5861 5862 5863 5864 5865 5866 5867 5867 5868 5868 5868 5868 5869 5869 5870 5870 5870 5871 5871 5871 5871 5871 5871 5871 5871 5871 5871 5871 5871 5871 5870 5870 5869
5850 5851 5852 5853 5854 5855 5856 5856 5857 5858 5859 5860 5861 5862 5863 5864 5865 5866 5866 5867 5867 5867 5868 5868 5869 5869 5869 5870 5870 5870 5870 5871 5871 5871 5871 5871 5870 5870 5870 5870 5870 5869 5869
5847 5848 5849 5850 5851 5852 5853 5854 5855 5856 5857 5858 5859 5860 5861 5862 5863 5864 5865 5865 5866 5866 5866 5867 5867 5868 5868 5868 5869 5869 5869 5870 5870 5870 5870 5870 5869 5869 5869 5869 5869 5868 5868
5843 5844 5845 5846 5847 5848 5849 5851 5852 5853 5854 5855 5856 5858 5859 5860 5861 5862 5863 5863 5864 5864 5865 5865 5866 5866 5867 5867 5867 5868 5868 5868 5868 5869 5869 5869 5868 5868 5868 5868 5868 5867 5867
5838 5839 5841 5842 5843 5844 5846 5847 5848 5849 5851 5852 5853 5855 5856 5857 5858 5860 5860 5861 5862 5862 5863 5863 5864 5864 5865 5865 5866 5866 5866 5867 5867 5867 5867 5867 5867 5867 5867 5867 5867 5866 5866
5833 5834 5836 5837 5838 5840 5841 5842 5844 5845 5847 5848 5850 5851 5853 5854 5855 5857 5858 5859 5860 5860 5861 5861 5862 5863 5863 5864 5864 5864 5864 5865 5865 5865 5865 5865 5865 5865 5865 5865 5865 5865 5865
5827 5828 5830 5832 5833 5835 5836 5838 5839 5841 5842 5844 5846 5847 5849 5851 5852 5853 5854 5855 5857 5857 5858 5859 5860 5860 5861 5861 5862 5862 5862 5863 5863 5863 5863 5864 5864 5864 5864 5864 5864 5863 5863
5820 5822 5824 5825 5827 5829 5831 5832 5834 5836 5838 5840 5842 5843 5845 5846 5848 5849 5850 5852 5853 5854 5855 5856 5857 5857 5858 5859 5859 5860 5860 5860 5861 5861 5861 5861 5862 5862 5862 5862 5861 5861 5861
5813 5815 5817 5819 5821 5823 5825 5827 5829 5831 5833 5835 5837 5839 5841 5842 5844 5845 5847 5848 5849 5850 5852 5853 5854 5855 5855 5856 5857 5857 5857 5858 5858 5858 5859 5859 5859 5859 5859 5859 5859 5859 5859
5806 5807 5809 5811 5814 5816 5818 5821 5823 5825 5827 5829 5832 5834 5836 5838 5840 5841 5843 5844 5846 5847 5848 5849 5851 5852 5852 5853 5854 5854 5855 5855 5855 5856 5856 5856 5857 5857 5857 5857 5856 5856 5856
5798 5799 5801 5803 5806 5809 5811 5814 5817 5819 5821 5823 5826 5829 5831 5833 5835 5837 5839 5840 5842 5843 5845 5846 5847 5848 5849 5850 5850 5851 5851 5852 5852 5853 5853 5853 5854 5854 5854 5854 5854 5853 5853
5789 5791 5793 5796 5798 5801 5804 5807 5809 5812 5814 5817 5820 5824 5826 5829 5831 5832 5834 5836 5838 5839 5841 5842 5844 5844 5845 5846 5847 5847 5848 5848 5849 5849 5850 5850 5850 5850 5850 5850 5850 5850 5850
5782 5784 5786 5788 5791 5794 5797 5799 5802 5805 5808 5811 5814 5818 5821 5823 5826 5828 5830 5832 5833 5835 5837 5838 5839 5841 5841 5842 5843 5844 5844 5845 5845 5845 5846 5846 5846 5846 5846 5846 5846 5846 5846
5775 5777 5779 5781 5784 5786 5789 5791 5794 5797 5801 5805 5808 5812 5815 5818 5821 5823 5825 5827 5829 5831 5832 5834 5835 5836 5837 5838 5839 5840 5840 5841 5841 5841 5841 5842 5842 5842 5842 5842 5842 5842 5841
5768 5769 5772 5774 5776 5778 5780 5783 5786 5790 5794 5798 5802 5805 5809 5812 5815 5817 5819 5822 5824 5826 5828 5830 5831 5832 5833 5834 5834 5835 5836 5836 5837 5837 5837 5837 5837 5837 5837 5837 5837 5837 5837
5760 5762 5764 5766 5768 5770 5772 5775 5779 5783 5787 5791 5795 5799 5802 5805 5808 5811 5813 5816 5818 5820 5822 5824 5826 5827 5828 5829 5829 5830 5831 5832 5832 5832 5832 5832 5832 5832 5832 5832 5832 5832 5832
5753 5755 5757 5758 5760 5762 5765 5768 5771 5775 5780 5784 5788 5792 5795 5799 5802 5804 5807 5810 5812 5814 5817 5819 5820 5822 5823 5824 5824 5825 5826 5826 5827 5827 5827 5827 5827 5827 5827 5827 5826 5826 5826
5746 5748 5749 5751 5753 5755 5757 5761 5764 5769 5773 5777 5782 5785 5789 5793 5795 5798 5801 5803 5806 5808 5811 5813 5815 5816 5818 5818 5819 5820 5820 5821 5821 5822 5822 5822 5821 5821 5821 5821 5821 5820 5820
5740 5741 5743 5744 5746 5748 5751 5754 5758 5762 5766 5771 5775 5779 5782 5786 5789 5792 5795 5797 5799 5802 5804 5807 5809 5810 5812 5813 5813 5814 5815 5815 5816 5816 5816 5816 5815 5815 5815 5815 5814 5814 5814
5733 5735 5736 5737 5739 5741 5744 5747 5751 5755 5759 5764 5768 5772 5776 5779 5783 5786 5788 5791 5793 5795 5798 5800 5802 5804 5805 5807 5807 5808 5809 5809 5810 5810 5809 5809 5809 5809 5809 5808 5808 5807 5807
5726 5728 5730 5732 5734 5736 5739 5742 5745 5749 5753 5758 5762 5766 5769 5773 5776 5779 5782 5784 5787 5789 5792 5794 5796 5797 5799 5800 5801 5801 5802 5802 5803 5803 5803 5802 5802 5802 5802 5801 5801 5800 5800
5720 5722 5724 5726 5728 5730 5733 5736 5739 5743 5747 5752 5756 5759 5762 5766 5769 5772 5775 5778 5780 5783 5785 5787 5789 5791 5792 5794 5794 5795 5795 5796 5796 5796 5795 5795 5795 5795 5795 5794 5794 5793 5793
5713 5715 5717 5719 5722 5724 5727 5729 5733 5737 5741 5745 5749 5752 5756 5759 5762 5765 5768 5771 5774 5776 5778 5780 5782 5784 5785 5786 5787 5788 5789 5789 5789 5789 5788 5788 5788 5787 5787 5786 5786 5786 5785
5706 5708 5710 5713 5715 5718 5720 5724 5727 5731 5735 5739 5743 5747 5750 5753 5756 5759 5762 5765 5767 5769 5771 5773 5774 5776 5777 5779 5780 5780 5781 5781 5782 5782 5781 5781 5780 5780 5779 5778 5778 5777 5776
5699 5701 5704 5706 5709 5712 5715 5718 5722 5726 5729 5733 5736 5740 5743 5746 5749 5752 5755 5757 5760 5762 5763 5765 5767 5768 5770 5771 5771 5772 5772 5772 5773 5773 5773 5773 5772 5771 5770 5769 5769 5768 5767
5692 5694 5697 5699 5703 5706 5709 5712 5716 5719 5723 5727 5730 5733 5736 5739 5742 5745 5748 5750 5752 5754 5756 5757 5759 5760 5761 5762 5763 5763 5764 5764 5764 5764 5764 5763 5763 5762 5761 5760 5759 5758 5757